Weather Roundup
Issued by NWS

Home | Current Version | Previous Version | Text Only | Print | Product List | Glossary On
Versions: 1 2 3 4 5 6 7 8 9 10 11 12 13 14 15 16 17 18 19 20 21 22 23 24 25 26 27 28 29 30 31 32 33 34 35 36 37 38 39 40 41 42 43 44 45 46 47 48 49 50
000
NZUS93 KARX 031210
HRRWXR

CURRENT HOURLY OBSERVATIONS ACROSS
MUCH OF THE UPPER MISSISSIPPI VALLEY
NATIONAL WEATHER SERVICE LA CROSSE WI
700 AM CDT FRI JUL 03 2015


...SOUTHEAST MINNESOTA...


CITY           SKY/WX    TMP DP  RH WIND       PRES   REMARKS
ROCHESTER      SUNNY     57  54  89 SW5       30.01R
ROCHESTER/MAYO FAIR      58  55  89 CALM      30.01R
WINONA         SUNNY     55  55 100 CALM      30.00R
AUSTIN         SUNNY     55  54  94 CALM      30.01S FOG
ALBERT LEA     SUNNY     57  54  88 CALM      30.01S
DODGE CENTER   SUNNY     55  54  94 W3        30.01R
PRESTON        SUNNY     55  52  88 SW3       30.02R
OWATONNA       SUNNY     57  54  88 CALM      30.01R
FARIBAULT      SUNNY     55  54  94 CALM      30.00R
$$

...ELSEWHERE IN MINNESOTA...


CITY           SKY/WX    TMP DP  RH WIND       PRES   REMARKS
MINNEAPOLIS    MOSUNNY   61  55  81 S3        29.98S
INTNL FALLS    CLOUDY    63  60  90 W6        29.87R FOG
DULUTH         LGT RAIN  64  52  64 W14       29.92R
RED WING       SUNNY     55  55 100 CALM      29.98R
REDWOOD FALLS  SUNNY     55  52  89 CALM      30.00R
MANKATO        SUNNY     57  52  82 SW5       30.00S
WORTHINGTON    SUNNY     54  50  87 W5        30.02S
FAIRMONT       SUNNY     54  46  76 CALM      30.01R
$$

...SOUTHWEST WISCONSIN...


CITY           SKY/WX    TMP DP  RH WIND       PRES   REMARKS
LA CROSSE      MOSUNNY   56  54  93 SE5       30.00S
PRAIRIE DU CHI FOG       53  52  96 CALM      30.01S VSB 1/4
BOSCOBEL       FOG       55  54  96 CALM      30.02S VSB<1/4
LONE ROCK      FOG       52  51  97 CALM      30.02S VSB 1/4
PLATTEVILLE    MOSUNNY   53  52  95 N3        30.01R
FORT MC COY    SUNNY     47  46  95 CALM      30.01S
CAMP DOUGLAS   SUNNY     49  49 100 SE5       30.00S
VIROQUA        FAIR      56  55  96 S3        30.01F
WIS DELLS      MOSUNNY   52  50  92 CALM      30.02S
$$

...ELSEWHERE IN WISCONSIN...


CITY           SKY/WX    TMP DP  RH WIND       PRES   REMARKS
MILWAUKEE      PTSUNNY   57  49  74 CALM      30.00S
MADISON        PTSUNNY   53  49  86 CALM      30.00F
GREEN BAY      SUNNY     55  51  86 CALM      30.00S
EAU CLAIRE     SUNNY     57  54  89 CALM      29.98S
BLACK RVR FLS  FAIR      48  48 100 CALM      29.99F
MEDFORD        SUNNY     53  50  89 CALM      30.00S
WAUSAU         SUNNY     53  50  89 E3        29.98F
WIS RAPIDS     SUNNY     53  49  86 CALM      30.01S
MARSHFIELD     SUNNY     54  49  83 CALM      30.00S
RICE LAKE      SUNNY     55  54  95 CALM      30.00S
$$

...NORTHEAST IOWA...


CITY           SKY/WX    TMP DP  RH WIND       PRES   REMARKS
DECORAH          N/A    N/A N/A N/A MISG        N/A
MASON CITY     SUNNY     55  53  93 CALM      30.02F
CHARLES CITY   SUNNY     55  55 100 NE3       30.01F
OELWEIN        SUNNY     54  52  94 NE5       30.02R
$$

...ELSEWHERE IN IOWA...


CITY           SKY/WX    TMP DP  RH WIND       PRES   REMARKS
DES MOINES     MOSUNNY   60  55  83 CALM      29.99R
IOWA CITY      PTSUNNY   61  56  83 NE5       29.99R
FORT DODGE     SUNNY     52  48  87 CALM      30.02R
$$

...NORTHERN ILLINOIS...


CITY           SKY/WX    TMP DP  RH WIND       PRES   REMARKS
CHICAGO-OHARE  PTSUNNY   59  54  83 N3        29.98R
CHICAGO-MIDWAY PTSUNNY   64  58  80 N3        29.97R
MOLINE         CLOUDY    61  56  83 NE3       29.97R
ROCKFORD       CLOUDY    59  50  72 N5        30.00R
PEORIA         CLOUDY    63  55  75 NE7       29.95R
$$

NOTE: "FAIR" INDICATES FEW OR NO CLOUDS BELOW 12,000 FEET WITH NO
SIGNIFICANT WEATHER AND/OR OBSTRUCTIONS TO VISIBILITY. WIND
SPEEDS ARE IN MILES-PER-HOUR.



USA.gov is the U.S. government's official web portal to all federal, state and local government web resources and services.